User: anonymous   Login
Location: Unspecified
(0.0000°N, 0.0000°E)
Time: 13:54:31
(UTC+00:00)
Language:

YUBELEINY 2 - Orbit

View from above orbital plane
View from above orbital plane
View from above satellite
View from above satellite

Ground track
Ground track

The orbit data is extracted from the following two-line orbital elements,

1 38735U 12041C   25137.87558595  .00000016  00000-0  44635-4 0  9997
2 38735  82.4747 321.1853 0017019 207.2673 152.7514 12.42631515580747
Epoch (UTC): 17 May 2025 21:00:50
Eccentricity: 0.0017019
inclination: 82.4747°
perigee height: 1482 km
apogee height: 1509 km
right ascension of ascending node: 321.1853°
argument of perigee: 207.2673°
revolutions per day: 12.42631515
mean anomaly at epoch: 152.7514°
orbit number at epoch: 58074

The dashed part of the orbit path shows where the satellite is in the earth's shadow,  

DLR